owner,sensor,date,latitude,longitude,vertical_datum,wind_speed,wind_to_direction,wind_speed_of_gust,qcFlag 
TABS,ioos:station:wmo:42046:1,2009-03-01T00:00:00Z,27.8903,-94.0367,4.0,10.94597643,353.7058561,14.17,'11111222,11111222,11111222' 
TABS,ioos:station:wmo:42046:1,2009-03-01T00:30:00Z,27.8903,-94.0367,4.0,10.76563514,356.9114839,13.97,'11111222,11111222,11111222' 
TABS,ioos:station:wmo:42046:1,2009-03-01T01:00:00Z,27.8903,-94.0367,4.0,10.6103393,350.6706523,13.66,'11111222,11111222,11111222' 
TABS,ioos:station:wmo:42046:1,2009-03-01T01:30:00Z,27.8903,-94.0367,4.0,10.51429979,349.2563021,13.89,'11111222,11111222,11111222' 
TABS,ioos:station:wmo:42046:1,2009-03-01T02:00:00Z,27.8903,-94.0367,4.0,12.43392134,351.5829697,15.87,'11111222,11111222,11111222' 
TABS,ioos:station:wmo:42046:1,2009-03-01T02:30:00Z,27.8903,-94.0367,4.0,12.5852493,346.1623296,16.41,'11111222,11111222,11111222' 
TABS,ioos:station:wmo:42046:1,2009-03-01T03:00:00Z,27.8903,-94.0367,4.0,12.6717047,349.266279,16.28,'11111222,11111222,11111222' 
TABS,ioos:station:wmo:42046:1,2009-03-01T03:30:00Z,27.8903,-94.0367,4.0,13.28665496,345.4406321,16.62,'11111222,11111222,11111222' 
TABS,ioos:station:wmo:42046:1,2009-03-01T04:00:00Z,27.8903,-94.0367,4.0,13.19101588,349.7377019,16.83,'11111222,11111222,11111222' 
TABS,ioos:station:wmo:42046:1,2009-03-01T04:30:00Z,27.8903,-94.0367,4.0,12.91542489,356.4040929,16.11,'11111222,11111222,11111222' 
TABS,ioos:station:wmo:42046:1,2009-03-01T05:00:00Z,27.8903,-94.0367,4.0,12.28330981,353.736879,15.87,'11111222,11111222,11111222' 
TABS,ioos:station:wmo:42046:1,2009-03-01T05:30:00Z,27.8903,-94.0367,4.0,12.075736,355.011564,15.51,'11111222,11111222,11111222' 
TABS,ioos:station:wmo:42046:1,2009-03-01T06:00:00Z,27.8903,-94.0367,4.0,11.50647209,349.1293336,15.39,'11111222,11111222,11111222' 
TABS,ioos:station:wmo:42046:1,2009-03-01T06:30:00Z,27.8903,-94.0367,4.0,11.63957473,350.8045435,15.86,'11111222,11111222,11111222' 
TABS,ioos:station:wmo:42046:1,2009-03-01T07:00:00Z,27.8903,-94.0367,4.0,11.90960117,354.2652747,15.4,'11111222,11111222,11111222' 
TABS,ioos:station:wmo:42046:1,2009-03-01T07:30:00Z,27.8903,-94.0367,4.0,11.65892791,352.1616029,15.15,'11111222,11111222,11111222' 
TABS,ioos:station:wmo:42046:1,2009-03-01T08:00:00Z,27.8903,-94.0367,4.0,12.00501978,353.5910961,15.1,'11111222,11111222,11111222' 
TABS,ioos:station:wmo:42046:1,2009-03-01T08:30:00Z,27.8903,-94.0367,4.0,11.22212992,346.0254933,15.53,'11111222,11111222,11111222' 
TABS,ioos:station:wmo:42046:1,2009-03-01T09:00:00Z,27.8903,-94.0367,4.0,12.05283784,347.7855359,16.34,'11111222,11111222,11111222' 
TABS,ioos:station:wmo:42046:1,2009-03-01T09:30:00Z,27.8903,-94.0367,4.0,12.47854158,355.495448,16.83,'11111222,11111222,11111222' 
TABS,ioos:station:wmo:42046:1,2009-03-01T10:00:00Z,27.8903,-94.0367,4.0,12.42016506,348.9522492,16.63,'11111222,11111222,11111222' 
TABS,ioos:station:wmo:42046:1,2009-03-01T10:30:00Z,27.8903,-94.0367,4.0,12.74124405,352.4229936,16.98,'11111222,11111222,11111222' 
TABS,ioos:station:wmo:42046:1,2009-03-01T11:00:00Z,27.8903,-94.0367,4.0,11.74436035,358.438455,15.97,'11111222,11111222,11111222' 
TABS,ioos:station:wmo:42046:1,2009-03-01T11:30:00Z,27.8903,-94.0367,4.0,11.30508735,355.4844821,16.01,'11111222,11111222,11111222' 
TABS,ioos:station:wmo:42046:1,2009-03-01T12:00:00Z,27.8903,-94.0367,4.0,11.37551757,349.3615948,15.23,'11111222,11111222,11111222' 
TABS,ioos:station:wmo:42046:1,2009-03-01T12:30:00Z,27.8903,-94.0367,4.0,11.04094652,355.063777,14.23,'11111222,11111222,11111222' 
TABS,ioos:station:wmo:42046:1,2009-03-01T13:00:00Z,27.8903,-94.0367,4.0,10.81310779,347.8273442,14.22,'11111222,11111222,11111222' 
TABS,ioos:station:wmo:42046:1,2009-03-01T13:30:00Z,27.8903,-94.0367,4.0,10.88360234,1.473984432,14.27,'11111222,11111222,11111222' 
TABS,ioos:station:wmo:42046:1,2009-03-01T14:00:00Z,27.8903,-94.0367,4.0,10.35791968,355.7920085,13.55,'11111222,11111222,11111222' 
TABS,ioos:station:wmo:42046:1,2009-03-01T14:30:00Z,27.8903,-94.0367,4.0,9.963934966,358.3894927,12.61,'11111222,11111222,11111222' 
TABS,ioos:station:wmo:42046:1,2009-03-01T15:00:00Z,27.8903,-94.0367,4.0,9.948994924,5.074286571,13.39,'11111222,11111222,11111222' 
TABS,ioos:station:wmo:42046:1,2009-03-01T15:30:00Z,27.8903,-94.0367,4.0,10.17208926,3.776387737,13.62,'11111222,11111222,11111222' 
TABS,ioos:station:wmo:42046:1,2009-03-01T16:00:00Z,27.8903,-94.0367,4.0,9.878345003,6.743495358,12.95,'11111222,11111222,11111222' 
TABS,ioos:station:wmo:42046:1,2009-03-01T16:30:00Z,27.8903,-94.0367,4.0,9.51840848,2.408281386,12.93,'11111222,11111222,11111222' 
TABS,ioos:station:wmo:42046:1,2009-03-01T17:00:00Z,27.8903,-94.0367,4.0,9.230151678,354.6536338,11.84,'11111222,11111222,11111222' 
TABS,ioos:station:wmo:42046:1,2009-03-01T17:30:00Z,27.8903,-94.0367,4.0,9.094641279,354.3205531,11.6,'11111222,11111222,11111222' 
TABS,ioos:station:wmo:42046:1,2009-03-01T18:00:00Z,27.8903,-94.0367,4.0,9.253199447,351.8609494,11.86,'11111222,11111222,11111222' 
TABS,ioos:station:wmo:42046:1,2009-03-01T18:30:00Z,27.8903,-94.0367,4.0,9.093404203,351.7805995,11.93,'11111222,11111222,11111222' 
TABS,ioos:station:wmo:42046:1,2009-03-01T19:00:00Z,27.8903,-94.0367,4.0,9.032319746,350.9546328,11.98,'11111222,11111222,11111222' 
TABS,ioos:station:wmo:42046:1,2009-03-01T19:30:00Z,27.8903,-94.0367,4.0,9.194634305,342.7275873,11.73,'11111222,11111222,11111222' 
TABS,ioos:station:wmo:42046:1,2009-03-01T20:00:00Z,27.8903,-94.0367,4.0,8.78025626,348.3699424,11.73,'11111222,11111222,11111222' 
TABS,ioos:station:wmo:42046:1,2009-03-01T20:30:00Z,27.8903,-94.0367,4.0,8.400148808,343.3985814,11.23,'11111222,11111222,11111222' 
TABS,ioos:station:wmo:42046:1,2009-03-01T21:00:00Z,27.8903,-94.0367,4.0,8.754530256,346.9953922,11.68,'11111222,11111222,11111222' 
TABS,ioos:station:wmo:42046:1,2009-03-01T21:30:00Z,27.8903,-94.0367,4.0,8.373392383,343.0580854,11.18,'11111222,11111222,11111222' 
TABS,ioos:station:wmo:42046:1,2009-03-01T22:00:00Z,27.8903,-94.0367,4.0,7.823362448,344.8089393,10.46,'11111222,11111222,11111222' 
TABS,ioos:station:wmo:42046:1,2009-03-01T22:30:00Z,27.8903,-94.0367,4.0,8.085598308,344.7260617,10.38,'11111222,11111222,11111222' 
TABS,ioos:station:wmo:42046:1,2009-03-01T23:00:00Z,27.8903,-94.0367,4.0,8.068221613,348.6341756,10.5,'11111222,11111222,11111222' 
TABS,ioos:station:wmo:42046:1,2009-03-01T23:30:00Z,27.8903,-94.0367,4.0,7.98621312,337.1592286,10.6,'11111222,11111222,11111222' 
TABS,ioos:station:wmo:42046:1,2009-03-02T00:00:00Z,27.8903,-94.0367,4.0,7.352638982,339.1245745,10.05,'11111222,11111222,11111222' 
TABS,ioos:station:wmo:42046:1,2009-03-02T00:30:00Z,27.8903,-94.0367,4.0,7.247544412,335.9811687,9.77,'11111222,11111222,11111222' 
TABS,ioos:station:wmo:42046:1,2009-03-02T01:00:00Z,27.8903,-94.0367,4.0,7.321509407,340.698709,10.12,'11111222,11111222,11111222' 
TABS,ioos:station:wmo:42046:1,2009-03-02T01:30:00Z,27.8903,-94.0367,4.0,7.293202314,340.6208086,9.67,'11111222,11111222,11111222' 
TABS,ioos:station:wmo:42046:1,2009-03-02T02:00:00Z,27.8903,-94.0367,4.0,7.19847206,345.8477523,9.99,'11111222,11111222,11111222' 
TABS,ioos:station:wmo:42046:1,2009-03-02T02:30:00Z,27.8903,-94.0367,4.0,7.494971648,350.3992462,9.68,'11111222,11111222,11111222' 
TABS,ioos:station:wmo:42046:1,2009-03-02T03:00:00Z,27.8903,-94.0367,4.0,7.830925871,344.064481,10.6,'11111222,11111222,11111222' 
TABS,ioos:station:wmo:42046:1,2009-03-02T03:30:00Z,27.8903,-94.0367,4.0,7.884319882,352.1266356,10.44,'11111222,11111222,11111222' 
TABS,ioos:station:wmo:42046:1,2009-03-02T04:00:00Z,27.8903,-94.0367,4.0,7.770978059,346.3033431,10.87,'11111222,11111222,11111222' 
TABS,ioos:station:wmo:42046:1,2009-03-02T04:30:00Z,27.8903,-94.0367,4.0,7.951867705,352.8479786,10.87,'11111222,11111222,11111222' 
TABS,ioos:station:wmo:42046:1,2009-03-02T05:00:00Z,27.8903,-94.0367,4.0,7.743545699,354.6646963,11.0,'11111222,11111222,11111222' 
TABS,ioos:station:wmo:42046:1,2009-03-02T05:30:00Z,27.8903,-94.0367,4.0,7.466009644,351.2944898,9.87,'11111222,11111222,11111222' 
TABS,ioos:station:wmo:42046:1,2009-03-02T06:00:00Z,27.8903,-94.0367,4.0,7.509886817,350.1862946,9.83,'11111222,11111222,11111222' 
TABS,ioos:station:wmo:42046:1,2009-03-02T06:30:00Z,27.8903,-94.0367,4.0,6.907401827,355.9319118,8.78,'11111222,11111222,11111222' 
TABS,ioos:station:wmo:42046:1,2009-03-02T07:00:00Z,27.8903,-94.0367,4.0,6.619675219,355.5811794,8.92,'11111222,11111222,11111222' 
TABS,ioos:station:wmo:42046:1,2009-03-02T07:30:00Z,27.8903,-94.0367,4.0,6.566132804,4.01701007,8.5,'11111222,11111222,11111222' 
TABS,ioos:station:wmo:42046:1,2009-03-02T08:00:00Z,27.8903,-94.0367,4.0,6.826162905,15.11500169,9.61,'11111222,11111222,11111222' 
TABS,ioos:station:wmo:42046:1,2009-03-02T08:30:00Z,27.8903,-94.0367,4.0,6.084619955,8.982185954,8.28,'11111222,11111222,11111222' 
TABS,ioos:station:wmo:42046:1,2009-03-02T09:00:00Z,27.8903,-94.0367,4.0,5.933843611,6.969094923,8.33,'11111222,11111222,11111222' 
TABS,ioos:station:wmo:42046:1,2009-03-02T09:30:00Z,27.8903,-94.0367,4.0,6.021029812,18.19395867,8.47,'11111222,11111222,11111222' 
TABS,ioos:station:wmo:42046:1,2009-03-02T10:00:00Z,27.8903,-94.0367,4.0,5.901050754,15.73175754,8.74,'11111222,11111222,11111222' 
TABS,ioos:station:wmo:42046:1,2009-03-02T10:30:00Z,27.8903,-94.0367,4.0,5.430515629,25.29070328,7.44,'11111222,11111222,11111222' 
TABS,ioos:station:wmo:42046:1,2009-03-02T11:00:00Z,27.8903,-94.0367,4.0,4.541200282,16.23976926,6.63,'11111222,11111222,11111222' 
TABS,ioos:station:wmo:42046:1,2009-03-02T11:30:00Z,27.8903,-94.0367,4.0,4.42435306,19.13089114,6.38,'11111222,11111222,11111222' 
TABS,ioos:station:wmo:42046:1,2009-03-02T12:00:00Z,27.8903,-94.0367,4.0,3.633469416,18.28509861,5.75,'11111222,11111222,11111222' 
TABS,ioos:station:wmo:42046:1,2009-03-02T12:30:00Z,27.8903,-94.0367,4.0,3.932492848,6.130800473,5.93,'11111222,11111222,11111222' 
TABS,ioos:station:wmo:42046:1,2009-03-02T13:00:00Z,27.8903,-94.0367,4.0,3.131293662,358.3527647,5.03,'11111222,11111222,11111222' 
TABS,ioos:station:wmo:42046:1,2009-03-02T13:30:00Z,27.8903,-94.0367,4.0,3.523308105,344.1884556,5.39,'11111222,11111222,11111222' 
TABS,ioos:station:wmo:42046:1,2009-03-02T14:00:00Z,27.8903,-94.0367,4.0,3.27914623,10.89848986,5.1,'11111222,11111222,11111222' 
TABS,ioos:station:wmo:42046:1,2009-03-02T14:30:00Z,27.8903,-94.0367,4.0,2.848806768,26.92455814,4.43,'11111222,11111222,11111222' 
TABS,ioos:station:wmo:42046:1,2009-03-02T15:00:00Z,27.8903,-94.0367,4.0,2.959087697,47.73901363,4.74,'11111222,11111222,11111222' 
TABS,ioos:station:wmo:42046:1,2009-03-02T15:30:00Z,27.8903,-94.0367,4.0,2.330772404,22.71414878,3.69,'11111222,11111222,11111222' 
TABS,ioos:station:wmo:42046:1,2009-03-02T16:00:00Z,27.8903,-94.0367,4.0,2.62488095,12.76532547,4.91,'11111222,11111222,11111222' 
TABS,ioos:station:wmo:42046:1,2009-03-02T16:30:00Z,27.8903,-94.0367,4.0,3.146061029,345.0801386,5.29,'11111222,11111222,11111222' 
TABS,ioos:station:wmo:42046:1,2009-03-02T17:00:00Z,27.8903,-94.0367,4.0,3.414703501,6.89585761,5.6,'11111222,11111222,11111222' 
TABS,ioos:station:wmo:42046:1,2009-03-02T17:30:00Z,27.8903,-94.0367,4.0,3.6492739,4.085396767,5.35,'11111222,11111222,11111222' 
TABS,ioos:station:wmo:42046:1,2009-03-02T18:00:00Z,27.8903,-94.0367,4.0,3.385911989,356.6134631,5.24,'11111222,11111222,11111222' 
TABS,ioos:station:wmo:42046:1,2009-03-02T18:30:00Z,27.8903,-94.0367,4.0,3.422294552,10.94852436,5.31,'11111222,11111222,11111222' 
TABS,ioos:station:wmo:42046:1,2009-03-02T19:00:00Z,27.8903,-94.0367,4.0,3.03,348.57863,4.68,'11111222,11111222,11111222' 
TABS,ioos:station:wmo:42046:1,2009-03-02T19:30:00Z,27.8903,-94.0367,4.0,2.984124662,338.1627772,4.86,'11111222,11111222,11111222' 
TABS,ioos:station:wmo:42046:1,2009-03-02T20:00:00Z,27.8903,-94.0367,4.0,2.951948509,334.3028499,4.39,'11111222,11111222,11111222' 
TABS,ioos:station:wmo:42046:1,2009-03-02T20:30:00Z,27.8903,-94.0367,4.0,2.28442553,343.4687472,3.73,'11111222,11111222,11111222' 
TABS,ioos:station:wmo:42046:1,2009-03-02T21:00:00Z,27.8903,-94.0367,4.0,2.956010825,343.8946851,5.01,'11111222,11111222,11111222' 
TABS,ioos:station:wmo:42046:1,2009-03-02T21:30:00Z,27.8903,-94.0367,4.0,2.211990054,346.4033395,4.13,'11111222,11111222,11111222' 
TABS,ioos:station:wmo:42046:1,2009-03-02T22:00:00Z,27.8903,-94.0367,4.0,3.107104762,3.875186674,4.38,'11111222,11111222,11111222' 
TABS,ioos:station:wmo:42046:1,2009-03-02T22:30:00Z,27.8903,-94.0367,4.0,2.280898946,333.9965045,4.26,'11111222,11111222,11111222' 
TABS,ioos:station:wmo:42046:1,2009-03-02T23:00:00Z,27.8903,-94.0367,4.0,2.637821071,349.0732687,3.86,'11111222,11111222,11111222' 
TABS,ioos:station:wmo:42046:1,2009-03-02T23:30:00Z,27.8903,-94.0367,4.0,2.699481432,9.811023466,4.14,'11111222,11111222,11111222' 
TABS,ioos:station:wmo:42046:1,2009-03-03T00:00:00Z,27.8903,-94.0367,4.0,2.030886506,1.69276402,3.4,'11111222,11111222,11111222' 
TABS,ioos:station:wmo:42046:1,2009-03-03T00:30:00Z,27.8903,-94.0367,4.0,1.663971154,346.7987332,3.28,'11111222,11111222,11111222' 
TABS,ioos:station:wmo:42046:1,2009-03-03T01:00:00Z,27.8903,-94.0367,4.0,2.140023364,359.7320548,3.6,'11111222,11144222,11111222' 
TABS,ioos:station:wmo:42046:1,2009-03-03T01:30:00Z,27.8903,-94.0367,4.0,2.202271555,13.65740011,3.76,'11111222,11111222,11111222' 
TABS,ioos:station:wmo:42046:1,2009-03-03T02:00:00Z,27.8903,-94.0367,4.0,2.441802613,26.77465182,3.78,'11111222,11111222,11111222' 
TABS,ioos:station:wmo:42046:1,2009-03-03T02:30:00Z,27.8903,-94.0367,4.0,2.252221126,34.32480254,3.81,'11111222,11111222,11111222' 
TABS,ioos:station:wmo:42046:1,2009-03-03T03:00:00Z,27.8903,-94.0367,4.0,1.697586522,43.56759148,3.25,'11111222,11111222,11111222' 
TABS,ioos:station:wmo:42046:1,2009-03-03T03:30:00Z,27.8903,-94.0367,4.0,2.172049723,57.40707383,3.39,'11111222,11111222,11111222' 
TABS,ioos:station:wmo:42046:1,2009-03-03T04:00:00Z,27.8903,-94.0367,4.0,2.375078946,74.61754874,4.03,'11111222,11111222,11111222' 
TABS,ioos:station:wmo:42046:1,2009-03-03T04:30:00Z,27.8903,-94.0367,4.0,2.616906571,85.8359762,4.18,'11111222,11111222,11111222' 
TABS,ioos:station:wmo:42046:1,2009-03-03T05:00:00Z,27.8903,-94.0367,4.0,2.517339866,98.45238652,4.13,'11111222,11111222,11111222' 
TABS,ioos:station:wmo:42046:1,2009-03-03T05:30:00Z,27.8903,-94.0367,4.0,2.475176761,93.70670155,3.76,'11111222,11111222,11111222' 
TABS,ioos:station:wmo:42046:1,2009-03-03T06:00:00Z,27.8903,-94.0367,4.0,3.07766145,81.02697345,4.74,'11111222,11111222,11111222' 
TABS,ioos:station:wmo:42046:1,2009-03-03T06:30:00Z,27.8903,-94.0367,4.0,2.636550777,104.7218274,4.04,'11111222,11111222,11111222' 
TABS,ioos:station:wmo:42046:1,2009-03-03T07:00:00Z,27.8903,-94.0367,4.0,2.096902477,94.65059489,3.39,'11111222,11111222,11111222' 
TABS,ioos:station:wmo:42046:1,2009-03-03T07:30:00Z,27.8903,-94.0367,4.0,2.960827587,99.52634745,4.17,'11111222,11111222,11111222' 
TABS,ioos:station:wmo:42046:1,2009-03-03T08:00:00Z,27.8903,-94.0367,4.0,2.422003303,126.7756071,4.06,'11111222,11111222,11111222' 
TABS,ioos:station:wmo:42046:1,2009-03-03T08:30:00Z,27.8903,-94.0367,4.0,2.732489707,113.2815554,3.91,'11111222,11111222,11111222' 
TABS,ioos:station:wmo:42046:1,2009-03-03T09:00:00Z,27.8903,-94.0367,4.0,2.591312409,110.3235102,4.05,'11111222,11111222,11111222' 
TABS,ioos:station:wmo:42046:1,2009-03-03T09:30:00Z,27.8903,-94.0367,4.0,2.553918558,113.0516679,4.11,'11111222,11111222,11111222' 
TABS,ioos:station:wmo:42046:1,2009-03-03T10:00:00Z,27.8903,-94.0367,4.0,3.10227336,108.0264961,5.1,'11111222,11111222,11111222' 
TABS,ioos:station:wmo:42046:1,2009-03-03T10:30:00Z,27.8903,-94.0367,4.0,3.327581704,107.1284283,4.71,'11111222,11111222,11111222' 
TABS,ioos:station:wmo:42046:1,2009-03-03T11:00:00Z,27.8903,-94.0367,4.0,2.947677052,109.4188463,4.25,'11111222,11111222,11111222' 
TABS,ioos:station:wmo:42046:1,2009-03-03T11:30:00Z,27.8903,-94.0367,4.0,3.554490118,108.0275353,5.04,'11111222,11111222,11111222' 
TABS,ioos:station:wmo:42046:1,2009-03-03T12:00:00Z,27.8903,-94.0367,4.0,3.417908717,105.0937769,5.22,'11111222,11111222,11111222' 
TABS,ioos:station:wmo:42046:1,2009-03-03T12:30:00Z,27.8903,-94.0367,4.0,4.36716155,108.1449095,5.79,'11111222,11111222,11111222' 
TABS,ioos:station:wmo:42046:1,2009-03-03T13:00:00Z,27.8903,-94.0367,4.0,4.06767747,101.918069,5.68,'11111222,11111222,11111222' 
TABS,ioos:station:wmo:42046:1,2009-03-03T13:30:00Z,27.8903,-94.0367,4.0,4.217700795,112.7351794,6.03,'11111222,11111222,11111222' 
TABS,ioos:station:wmo:42046:1,2009-03-03T14:00:00Z,27.8903,-94.0367,4.0,4.67248328,96.76038825,6.66,'11111222,11111222,11111222' 
TABS,ioos:station:wmo:42046:1,2009-03-03T14:30:00Z,27.8903,-94.0367,4.0,5.051989707,101.5327468,6.95,'11111222,11111222,11111222' 
TABS,ioos:station:wmo:42046:1,2009-03-03T15:00:00Z,27.8903,-94.0367,4.0,5.198846026,98.6292568,7.58,'11111222,11111222,11111222' 
TABS,ioos:station:wmo:42046:1,2009-03-03T15:30:00Z,27.8903,-94.0367,4.0,5.460265561,94.93833426,7.1,'11111222,11111222,11111222' 
TABS,ioos:station:wmo:42046:1,2009-03-03T16:00:00Z,27.8903,-94.0367,4.0,5.550180177,99.75123336,8.28,'11111222,11111222,11111222' 
TABS,ioos:station:wmo:42046:1,2009-03-03T16:30:00Z,27.8903,-94.0367,4.0,5.593612428,93.99845367,8.36,'11111222,11111222,11111222' 
TABS,ioos:station:wmo:42046:1,2009-03-03T17:00:00Z,27.8903,-94.0367,4.0,5.306194493,112.8444972,7.12,'11111222,11111222,11111222' 
TABS,ioos:station:wmo:42046:1,2009-03-03T17:30:00Z,27.8903,-94.0367,4.0,5.518061254,106.5305542,7.24,'11111222,11111222,11111222' 
TABS,ioos:station:wmo:42046:1,2009-03-03T18:00:00Z,27.8903,-94.0367,4.0,5.159089067,121.6878812,7.2,'11111222,11111222,11111222' 
TABS,ioos:station:wmo:42046:1,2009-03-03T18:30:00Z,27.8903,-94.0367,4.0,5.189547186,123.0473535,7.18,'11111222,11111222,11111222' 
TABS,ioos:station:wmo:42046:1,2009-03-03T19:00:00Z,27.8903,-94.0367,4.0,5.249038007,133.3020205,7.12,'11111222,11111222,11111222' 
TABS,ioos:station:wmo:42046:1,2009-03-03T19:30:00Z,27.8903,-94.0367,4.0,5.027733088,117.7376662,6.44,'11111222,11111222,11111222' 
TABS,ioos:station:wmo:42046:1,2009-03-03T20:00:00Z,27.8903,-94.0367,4.0,4.367195897,122.0891695,6.29,'11111222,11111222,11111222' 
TABS,ioos:station:wmo:42046:1,2009-03-03T20:30:00Z,27.8903,-94.0367,4.0,4.567997373,135.355083,5.83,'11111222,11111222,11111222' 
TABS,ioos:station:wmo:42046:1,2009-03-03T21:00:00Z,27.8903,-94.0367,4.0,4.121371131,148.3927821,5.78,'11111222,11111222,11111222' 
TABS,ioos:station:wmo:42046:1,2009-03-03T21:30:00Z,27.8903,-94.0367,4.0,4.257628448,133.858361,6.35,'11111222,11111222,11111222' 
TABS,ioos:station:wmo:42046:1,2009-03-03T22:00:00Z,27.8903,-94.0367,4.0,4.006320007,140.4693979,6.15,'11111222,11111222,11111222' 
TABS,ioos:station:wmo:42046:1,2009-03-03T22:30:00Z,27.8903,-94.0367,4.0,3.544248863,142.4514192,5.65,'11111222,11111222,11111222' 
TABS,ioos:station:wmo:42046:1,2009-03-03T23:00:00Z,27.8903,-94.0367,4.0,3.684575959,135.9899693,5.89,'11111222,11111222,11111222' 
TABS,ioos:station:wmo:42046:1,2009-03-03T23:30:00Z,27.8903,-94.0367,4.0,4.239304188,129.7366804,6.16,'11111222,11111222,11111222' 
TABS,ioos:station:wmo:42046:1,2009-03-04T00:00:00Z,27.8903,-94.0367,4.0,4.476259599,135.633891,6.64,'11111222,11111222,11111222' 
TABS,ioos:station:wmo:42046:1,2009-03-04T00:30:00Z,27.8903,-94.0367,4.0,4.522057054,131.0551387,6.36,'11111222,11111222,11111222' 
TABS,ioos:station:wmo:42046:1,2009-03-04T01:00:00Z,27.8903,-94.0367,4.0,4.855388759,132.4962707,6.77,'11111222,11111222,11111222' 
TABS,ioos:station:wmo:42046:1,2009-03-04T01:30:00Z,27.8903,-94.0367,4.0,5.303772242,129.0313068,6.83,'11111222,11111222,11111222' 
TABS,ioos:station:wmo:42046:1,2009-03-04T02:00:00Z,27.8903,-94.0367,4.0,5.616342226,143.7629107,8.48,'11111222,11111222,11111222' 
TABS,ioos:station:wmo:42046:1,2009-03-04T02:30:00Z,27.8903,-94.0367,4.0,5.705436004,130.1659207,8.05,'11111222,11111222,11111222' 
TABS,ioos:station:wmo:42046:1,2009-03-04T03:00:00Z,27.8903,-94.0367,4.0,5.2939966,137.4499726,7.4,'11111222,11111222,11111222' 
TABS,ioos:station:wmo:42046:1,2009-03-04T03:30:00Z,27.8903,-94.0367,4.0,6.254158616,138.3059047,8.17,'11111222,11111222,11111222' 
TABS,ioos:station:wmo:42046:1,2009-03-04T04:00:00Z,27.8903,-94.0367,4.0,6.156143273,143.5212989,8.37,'11111222,11111222,11111222' 
TABS,ioos:station:wmo:42046:1,2009-03-04T04:30:00Z,27.8903,-94.0367,4.0,6.186186224,142.6858249,8.99,'11111222,11111222,11111222' 
TABS,ioos:station:wmo:42046:1,2009-03-04T05:00:00Z,27.8903,-94.0367,4.0,5.524717187,152.043698,7.45,'11111222,11111222,11111222' 
TABS,ioos:station:wmo:42046:1,2009-03-04T05:30:00Z,27.8903,-94.0367,4.0,5.871873636,155.6612942,7.89,'11111222,11111222,11111222' 
TABS,ioos:station:wmo:42046:1,2009-03-04T06:00:00Z,27.8903,-94.0367,4.0,5.951688836,157.787689,8.02,'11111222,11111222,11111222' 
TABS,ioos:station:wmo:42046:1,2009-03-04T06:30:00Z,27.8903,-94.0367,4.0,6.080370055,166.0097083,8.33,'11111222,11111222,11111222' 
TABS,ioos:station:wmo:42046:1,2009-03-04T07:00:00Z,27.8903,-94.0367,4.0,6.708710755,174.6975429,8.9,'11111222,11111222,11111222' 
TABS,ioos:station:wmo:42046:1,2009-03-04T07:30:00Z,27.8903,-94.0367,4.0,6.39413794,167.8116058,9.29,'11111222,11111222,11111222' 
TABS,ioos:station:wmo:42046:1,2009-03-04T08:00:00Z,27.8903,-94.0367,4.0,6.498445968,166.9263222,9.14,'11111222,11111222,11111222' 
TABS,ioos:station:wmo:42046:1,2009-03-04T08:30:00Z,27.8903,-94.0367,4.0,6.853349546,171.6100166,8.87,'11111222,11111222,11111222' 
TABS,ioos:station:wmo:42046:1,2009-03-04T09:00:00Z,27.8903,-94.0367,4.0,7.012973692,164.8741069,9.37,'11111222,11111222,11111222' 
TABS,ioos:station:wmo:42046:1,2009-03-04T09:30:00Z,27.8903,-94.0367,4.0,6.99971428,165.6066511,8.71,'11111222,11111222,11111222' 
TABS,ioos:station:wmo:42046:1,2009-03-04T10:00:00Z,27.8903,-94.0367,4.0,7.176099219,164.6470905,9.1,'11111222,11111222,11111222' 
TABS,ioos:station:wmo:42046:1,2009-03-04T10:30:00Z,27.8903,-94.0367,4.0,6.502499519,169.8136045,8.31,'11111222,11111222,11111222' 
TABS,ioos:station:wmo:42046:1,2009-03-04T11:00:00Z,27.8903,-94.0367,4.0,7.260771309,171.4460533,9.57,'11111222,11111222,11111222' 
TABS,ioos:station:wmo:42046:1,2009-03-04T11:30:00Z,27.8903,-94.0367,4.0,6.635977697,164.3513491,8.47,'11111222,11111222,11111222' 
TABS,ioos:station:wmo:42046:1,2009-03-04T12:00:00Z,27.8903,-94.0367,4.0,6.414865548,170.6700631,8.59,'11111222,11111222,11111222' 
TABS,ioos:station:wmo:42046:1,2009-03-04T12:30:00Z,27.8903,-94.0367,4.0,6.673717105,174.2383747,9.53,'11111222,11111222,11111222' 
TABS,ioos:station:wmo:42046:1,2009-03-04T13:00:00Z,27.8903,-94.0367,4.0,6.417974758,184.2893538,8.24,'11111222,11111222,11111222' 
TABS,ioos:station:wmo:42046:1,2009-03-04T13:30:00Z,27.8903,-94.0367,4.0,5.90410027,177.864752,7.89,'11111222,11111222,11111222' 
TABS,ioos:station:wmo:42046:1,2009-03-04T14:00:00Z,27.8903,-94.0367,4.0,4.989589161,167.9696425,7.63,'11111222,11111222,11111222' 
TABS,ioos:station:wmo:42046:1,2009-03-04T14:30:00Z,27.8903,-94.0367,4.0,5.155540709,175.5503738,6.91,'11111222,11111222,11111222' 
TABS,ioos:station:wmo:42046:1,2009-03-04T15:00:00Z,27.8903,-94.0367,4.0,4.925413688,167.5723712,6.78,'11111222,11111222,11111222' 
TABS,ioos:station:wmo:42046:1,2009-03-04T15:30:00Z,27.8903,-94.0367,4.0,4.410725564,150.5293072,5.6,'11111222,11111222,11111222' 
TABS,ioos:station:wmo:42046:1,2009-03-04T16:00:00Z,27.8903,-94.0367,4.0,5.266165588,155.1871334,6.57,'11111222,11111222,11111222' 
TABS,ioos:station:wmo:42046:1,2009-03-04T16:30:00Z,27.8903,-94.0367,4.0,6.01419155,163.2827553,7.54,'11111222,11111222,11111222' 
TABS,ioos:station:wmo:42046:1,2009-03-04T17:00:00Z,27.8903,-94.0367,4.0,5.992703897,167.471432,7.36,'11111222,11111222,11111222' 
TABS,ioos:station:wmo:42046:1,2009-03-04T17:30:00Z,27.8903,-94.0367,4.0,6.556683613,162.698356,8.51,'11111222,11111222,11111222' 
TABS,ioos:station:wmo:42046:1,2009-03-04T18:00:00Z,27.8903,-94.0367,4.0,6.081422531,175.1896355,7.63,'11111222,11111222,11111222' 
TABS,ioos:station:wmo:42046:1,2009-03-04T18:30:00Z,27.8903,-94.0367,4.0,6.340070978,151.6566761,7.8,'11111222,11111222,11111222' 